| time (UTC) | temp F | wind direction | speed MPH | gust MPH | rain 1hr in | rain 24hr in | rain mn in | humidity % | barometer mb |
| 20260903202222 | 63 | 344 | 0.0 | 0.0 | 0.00 | 0.00 | 0.00 | 68 | 1025.3 |
| 20260903201723 | 63 | 344 | 0.0 | 0.0 | 0.00 | 0.00 | 0.00 | 67 | 1025.3 |
| 20260903201214 | 63 | 338 | 0.0 | 0.0 | 0.00 | 0.00 | 0.00 | 67 | 1025.3 |
| 20260903200212 | 63 | 338 | 0.0 | 0.0 | 0.00 | 0.00 | 0.00 | 66 | 1025.3 |
| 20260903195719 | 64 | 338 | 0.0 | 0.0 | 0.00 | 0.00 | 0.00 | 66 | 1025.3 |
| 20260903195212 | 64 | 338 | 0.0 | 0.0 | 0.00 | 0.00 | 0.00 | 66 | 1025.3 |
| 20260903194721 | 64 | 338 | 0.0 | 0.0 | 0.00 | 0.00 | 0.00 | 65 | 1025.3 |
| 20260903194227 | 64 | 338 | 0.0 | 0.0 | 0.00 | 0.00 | 0.00 | 65 | 1025.3 |
| 20260903193714 | 64 | 338 | 0.0 | 0.0 | 0.00 | 0.00 | 0.00 | 64 | 1025.3 |
| 20260903193219 | 65 | 338 | 0.0 | 0.0 | 0.00 | 0.00 | 0.00 | 64 | 1025.3 |
| 20260903192715 | 65 | 338 | 0.0 | 0.0 | 0.00 | 0.00 | 0.00 | 63 | 1025.3 |
| 20260903192213 | 65 | 348 | 0.0 | 0.0 | 0.00 | 0.00 | 0.00 | 62 | 1025.3 |
| 20260903191721 | 66 | 355 | 0.0 | 0.0 | 0.00 | 0.00 | 0.00 | 61 | 1025.2 |
| 20260903190727 | 66 | 327 | 0.0 | 0.0 | 0.00 | 0.00 | 0.00 | 61 | 1025.2 |
| 20260903190221 | 67 | 5 | 0.0 | 4.0 | 0.00 | 0.00 | 0.00 | 59 | 1025.1 |
| 20260903185719 | 67 | 315 | 0.0 | 4.0 | 0.00 | 0.00 | 0.00 | 59 | 1025.1 |
| 20260903185226 | 68 | 344 | 0.0 | 4.0 | 0.00 | 0.00 | 0.00 | 58 | 1025.0 |
| 20260903184715 | 68 | 34 | 0.0 | 0.0 | 0.00 | 0.00 | 0.00 | 56 | 1024.9 |
| 20260903184224 | 68 | 344 | 0.0 | 0.0 | 0.00 | 0.00 | 0.00 | 57 | 1024.8 |
| 20260903183725 | 68 | 337 | 0.0 | 0.0 | 0.00 | 0.00 | 0.00 | 56 | 1024.8 |
| 20260903182726 | 69 | 32 | 0.0 | 4.0 | 0.00 | 0.00 | 0.00 | 55 | 1024.7 |
| 20260903182214 | 69 | 11 | 0.0 | 5.0 | 0.00 | 0.00 | 0.00 | 54 | 1024.7 |
| 20260903180750 | 69 | 344 | 1.0 | 7.0 | 0.00 | 0.00 | 0.00 | 54 | 1024.6 |
| 20260903180226 | 69 | 344 | 0.0 | 3.0 | 0.00 | 0.00 | 0.00 | 54 | 1024.5 |
| 20260903175726 | 69 | 331 | 0.0 | 0.0 | 0.00 | 0.00 | 0.00 | 53 | 1024.4 |
| 20260903175223 | 69 | 32 | 0.0 | 0.0 | 0.00 | 0.00 | 0.00 | 55 | 1024.4 |
| 20260903174718 | 70 | 21 | 0.0 | 0.0 | 0.00 | 0.00 | 0.00 | 55 | 1024.3 |
| 20260903174213 | 70 | 0 | 0.0 | 0.0 | 0.00 | 0.00 | 0.00 | 56 | 1024.4 |
| 20260903173224 | 71 | 38 | 0.0 | 0.0 | 0.00 | 0.00 | 0.00 | 54 | 1024.3 |
| 20260903172718 | 71 | 355 | 0.0 | 0.0 | 0.00 | 0.00 | 0.00 | 53 | 1024.4 |
| 20260903172214 | 72 | 334 | 0.0 | 0.0 | 0.00 | 0.00 | 0.00 | 52 | 1024.3 |
| 20260903171731 | 72 | 334 | 0.0 | 0.0 | 0.00 | 0.00 | 0.00 | 51 | 1024.4 |
| 20260903170223 | 73 | 345 | 0.0 | 3.0 | 0.00 | 0.00 | 0.00 | 49 | 1024.3 |
| 20260903165719 | 73 | 236 | 0.0 | 3.0 | 0.00 | 0.00 | 0.00 | 47 | 1024.3 |
| 20260903165225 | 74 | 323 | 0.0 | 3.0 | 0.00 | 0.00 | 0.00 | 45 | 1024.3 |
| 20260903164718 | 74 | 340 | 0.0 | 0.0 | 0.00 | 0.00 | 0.00 | 43 | 1024.4 |
| 20260903164227 | 75 | 76 | 0.0 | 7.0 | 0.00 | 0.00 | 0.00 | 45 | 1024.3 |
| 20260903163725 | 75 | 351 | 0.0 | 9.0 | 0.00 | 0.00 | 0.00 | 45 | 1024.3 |
| 20260903163227 | 75 | 342 | 2.0 | 9.0 | 0.00 | 0.00 | 0.00 | 44 | 1024.1 |
| 20260903162716 | 75 | 344 | 2.0 | 9.0 | 0.00 | 0.00 | 0.00 | 42 | 1024.3 |
| 20260903162218 | 75 | 34 | 1.0 | 9.0 | 0.00 | 0.00 | 0.00 | 42 | 1024.3 |
| 20260903161219 | 75 | 323 | 2.0 | 9.0 | 0.00 | 0.00 | 0.00 | 43 | 1024.3 |
| 20260903160727 | 75 | 349 | 1.0 | 10.0 | 0.00 | 0.00 | 0.00 | 43 | 1024.4 |
| 20260903160223 | 75 | 119 | 1.0 | 10.0 | 0.00 | 0.00 | 0.00 | 41 | 1024.3 |
| 20260903155753 | 76 | 126 | 2.0 | 10.0 | 0.00 | 0.00 | 0.00 | 41 | 1024.4 |
| 20260903155215 | 76 | 315 | 5.0 | 10.0 | 0.00 | 0.00 | 0.00 | 41 | 1024.4 |
| 20260903154712 | 76 | 341 | 6.0 | 10.0 | 0.00 | 0.00 | 0.00 | 40 | 1024.5 |
| 20260903154235 | 76 | 323 | 5.0 | 10.0 | 0.00 | 0.00 | 0.00 | 40 | 1024.5 |
| 20260903153715 | 76 | 349 | 2.0 | 8.0 | 0.00 | 0.00 | 0.00 | 40 | 1024.5 |
| 20260903153216 | 76 | 321 | 1.0 | 10.0 | 0.00 | 0.00 | 0.00 | 39 | 1024.5 |
| 20260903152712 | 76 | 251 | 3.0 | 10.0 | 0.00 | 0.00 | 0.00 | 40 | 1024.4 |
| 20260903152211 | 76 | 270 | 3.0 | 10.0 | 0.00 | 0.00 | 0.00 | 39 | 1024.4 |
| 20260903151725 | 76 | 313 | 2.0 | 11.0 | 0.00 | 0.00 | 0.00 | 38 | 1024.4 |
| 20260903151220 | 76 | 266 | 3.0 | 12.0 | 0.00 | 0.00 | 0.00 | 38 | 1024.4 |
| 20260903145719 | 76 | 259 | 6.0 | 13.0 | 0.00 | 0.00 | 0.00 | 38 | 1024.4 |
| 20260903145216 | 76 | 300 | 5.0 | 10.0 | 0.00 | 0.00 | 0.00 | 38 | 1024.5 |
| 20260903144722 | 76 | 309 | 5.0 | 10.0 | 0.00 | 0.00 | 0.00 | 39 | 1024.4 |
| 20260903143717 | 76 | 328 | 5.0 | 10.0 | 0.00 | 0.00 | 0.00 | 41 | 1024.4 |
| 20260903143228 | 76 | 326 | 4.0 | 9.0 | 0.00 | 0.00 | 0.00 | 40 | 1024.4 |
| 20260903142714 | 76 | 288 | 4.0 | 12.0 | 0.00 | 0.00 | 0.00 | 40 | 1024.5 |
| 20260903142226 | 75 | 302 | 4.0 | 12.0 | 0.00 | 0.00 | 0.00 | 41 | 1024.5 |
| 20260903141727 | 75 | 305 | 3.0 | 12.0 | 0.00 | 0.00 | 0.00 | 41 | 1024.5 |
| 20260903141231 | 76 | 263 | 2.0 | 9.0 | 0.00 | 0.00 | 0.00 | 41 | 1024.5 |
| 20260903140721 | 76 | 296 | 1.0 | 9.0 | 0.00 | 0.00 | 0.00 | 41 | 1024.5 |
| 20260903140210 | 76 | 165 | 1.0 | 7.0 | 0.00 | 0.00 | 0.00 | 41 | 1024.6 |
| 20260903135718 | 76 | 96 | 0.0 | 7.0 | 0.00 | 0.00 | 0.00 | 42 | 1024.4 |
| 20260903135220 | 76 | 66 | 1.0 | 7.0 | 0.00 | 0.00 | 0.00 | 41 | 1024.4 |
| 20260903134732 | 76 | 308 | 2.0 | 7.0 | 0.00 | 0.00 | 0.00 | 40 | 1024.5 |
| 20260903134215 | 76 | 199 | 2.0 | 9.0 | 0.00 | 0.00 | 0.00 | 41 | 1024.5 |
| 20260903133747 | 76 | 342 | 3.0 | 9.0 | 0.00 | 0.00 | 0.00 | 41 | 1024.6 |
| 20260903133228 | 76 | 66 | 3.0 | 9.0 | 0.00 | 0.00 | 0.00 | 41 | 1024.5 |
| 20260903132745 | 77 | 148 | 2.0 | 8.0 | 0.00 | 0.00 | 0.00 | 40 | 1024.5 |
| 20260903131720 | 77 | 111 | 1.0 | 10.0 | 0.00 | 0.00 | 0.00 | 42 | 1024.6 |
| 20260903131214 | 76 | 61 | 2.0 | 10.0 | 0.00 | 0.00 | 0.00 | 40 | 1024.6 |
| 20260903130729 | 77 | 321 | 2.0 | 9.0 | 0.00 | 0.00 | 0.00 | 40 | 1024.5 |
| 20260903130227 | 76 | 304 | 2.0 | 11.0 | 0.00 | 0.00 | 0.00 | 41 | 1024.6 |
| 20260903125715 | 76 | 170 | 3.0 | 11.0 | 0.00 | 0.00 | 0.00 | 41 | 1024.6 |
| 20260903125220 | 76 | 151 | 4.0 | 14.0 | 0.00 | 0.00 | 0.00 | 42 | 1024.5 |
| 20260903124712 | 76 | 80 | 5.0 | 14.0 | 0.00 | 0.00 | 0.00 | 41 | 1024.4 |
| 20260903124217 | 76 | 125 | 4.0 | 13.0 | 0.00 | 0.00 | 0.00 | 41 | 1024.5 |
| 20260903123719 | 75 | 165 | 3.0 | 12.0 | 0.00 | 0.00 | 0.00 | 41 | 1024.5 |
| 20260903123213 | 76 | 128 | 2.0 | 12.0 | 0.00 | 0.00 | 0.00 | 41 | 1024.3 |
| 20260903122714 | 76 | 70 | 3.0 | 12.0 | 0.00 | 0.00 | 0.00 | 42 | 1024.6 |
| 20260903122219 | 75 | 177 | 4.0 | 12.0 | 0.00 | 0.00 | 0.00 | 42 | 1024.6 |
| 20260903121721 | 75 | 181 | 5.0 | 12.0 | 0.00 | 0.00 | 0.00 | 42 | 1024.6 |
| 20260903121223 | 75 | 179 | 5.0 | 14.0 | 0.00 | 0.00 | 0.00 | 42 | 1024.7 |
| 20260903120722 | 75 | 153 | 4.0 | 14.0 | 0.00 | 0.00 | 0.00 | 41 | 1024.7 |
| 20260903120219 | 75 | 166 | 2.0 | 14.0 | 0.00 | 0.00 | 0.00 | 41 | 1024.7 |
| 20260903115721 | 76 | 161 | 1.0 | 10.0 | 0.00 | 0.00 | 0.00 | 41 | 1024.8 |
| 20260903115221 | 75 | 280 | 3.0 | 10.0 | 0.00 | 0.00 | 0.00 | 43 | 1024.9 |
| 20260903114728 | 75 | 355 | 2.0 | 6.0 | 0.00 | 0.00 | 0.00 | 42 | 1024.9 |
| 20260903114226 | 74 | 5 | 1.0 | 5.0 | 0.00 | 0.00 | 0.00 | 39 | 1024.7 |
| 20260903113223 | 74 | 305 | 1.0 | 10.0 | 0.00 | 0.00 | 0.00 | 38 | 1024.9 |
| 20260903112722 | 75 | 202 | 2.0 | 10.0 | 0.00 | 0.00 | 0.00 | 36 | 1024.9 |
| 20260903111716 | 74 | 302 | 3.0 | 15.0 | 0.00 | 0.00 | 0.00 | 35 | 1025.3 |
| 20260903111213 | 73 | 341 | 5.0 | 15.0 | 0.00 | 0.00 | 0.00 | 39 | 1025.4 |
| 20260903110711 | 73 | 333 | 4.0 | 15.0 | 0.00 | 0.00 | 0.00 | 40 | 1025.3 |
| 20260903110209 | 74 | 306 | 3.0 | 11.0 | 0.00 | 0.00 | 0.00 | 39 | 1025.2 |
| 20260903105713 | 73 | 350 | 3.0 | 11.0 | 0.00 | 0.00 | 0.00 | 39 | 1025.2 |
| 20260903105214 | 73 | 22 | 2.0 | 11.0 | 0.00 | 0.00 | 0.00 | 37 | 1025.3 |
| 20260903104714 | 73 | 286 | 2.0 | 11.0 | 0.00 | 0.00 | 0.00 | 40 | 1025.3 |
| 20260903104217 | 73 | 346 | 2.0 | 11.0 | 0.00 | 0.00 | 0.00 | 43 | 1025.4 |
| 20260903103722 | 72 | 342 | 4.0 | 11.0 | 0.00 | 0.00 | 0.00 | 43 | 1025.3 |
| 20260903103211 | 72 | 342 | 5.0 | 13.0 | 0.00 | 0.00 | 0.00 | 43 | 1025.4 |
| 20260903102725 | 73 | 313 | 5.0 | 13.0 | 0.00 | 0.00 | 0.00 | 44 | 1025.3 |
| 20260903102219 | 72 | 0 | 5.0 | 13.0 | 0.00 | 0.00 | 0.00 | 45 | 1025.2 |
| 20260903101716 | 72 | 321 | 4.0 | 12.0 | 0.00 | 0.00 | 0.00 | 45 | 1025.2 |
| 20260903101215 | 72 | 266 | 5.0 | 17.0 | 0.00 | 0.00 | 0.00 | 44 | 1025.4 |
| 20260903100223 | 72 | 340 | 5.0 | 12.0 | 0.00 | 0.00 | 0.00 | 42 | 1025.5 |
| 20260903095724 | 72 | 329 | 3.0 | 7.0 | 0.00 | 0.00 | 0.00 | 42 | 1025.4 |
| 20260903095207 | 72 | 192 | 1.0 | 7.0 | 0.00 | 0.00 | 0.00 | 44 | 1025.4 |
| 20260903094733 | 72 | 351 | 1.0 | 6.0 | 0.00 | 0.00 | 0.00 | 48 | 1025.4 |
| 20260903094219 | 71 | 130 | 1.0 | 8.0 | 0.00 | 0.00 | 0.00 | 51 | 1025.4 |
| 20260903093205 | 70 | 164 | 2.0 | 9.0 | 0.00 | 0.00 | 0.00 | 53 | 1025.5 |
| 20260903092717 | 70 | 173 | 3.0 | 9.0 | 0.00 | 0.00 | 0.00 | 52 | 1025.5 |
| 20260903090732 | 69 | 165 | 3.0 | 10.0 | 0.00 | 0.00 | 0.00 | 54 | 1025.5 |
| 20260903090219 | 69 | 179 | 2.0 | 8.0 | 0.00 | 0.00 | 0.00 | 55 | 1025.4 |
| 20260903085226 | 69 | 183 | 2.0 | 7.0 | 0.00 | 0.00 | 0.00 | 55 | 1025.4 |
| 20260903084715 | 68 | 137 | 1.0 | 6.0 | 0.00 | 0.00 | 0.00 | 57 | 1025.5 |
| 20260903084208 | 68 | 176 | 1.0 | 7.0 | 0.00 | 0.00 | 0.00 | 57 | 1025.4 |
| 20260903083706 | 67 | 219 | 2.0 | 7.0 | 0.00 | 0.00 | 0.00 | 59 | 1025.4 |
| 20260903083217 | 67 | 165 | 3.0 | 8.0 | 0.00 | 0.00 | 0.00 | 60 | 1025.3 |
| 20260903082725 | 67 | 150 | 3.0 | 8.0 | 0.00 | 0.00 | 0.00 | 60 | 1025.2 |
| 20260903081719 | 66 | 178 | 2.0 | 7.0 | 0.00 | 0.00 | 0.00 | 61 | 1025.2 |
| 20260903081219 | 66 | 175 | 2.0 | 6.0 | 0.00 | 0.00 | 0.00 | 61 | 1025.4 |
| 20260903080715 | 66 | 152 | 1.0 | 3.0 | 0.00 | 0.00 | 0.00 | 61 | 1025.7 |
| 20260903075726 | 65 | 144 | 0.0 | 0.0 | 0.00 | 0.00 | 0.00 | 62 | 1025.5 |
| 20260903075215 | 65 | 134 | 0.0 | 0.0 | 0.00 | 0.00 | 0.00 | 62 | 1025.5 |
| 20260903074720 | 64 | 149 | 0.0 | 0.0 | 0.00 | 0.00 | 0.00 | 65 | 1025.3 |
| 20260903074215 | 64 | 134 | 0.0 | 0.0 | 0.00 | 0.00 | 0.00 | 64 | 1025.1 |
| 20260903073714 | 63 | 179 | 0.0 | 0.0 | 0.00 | 0.00 | 0.00 | 67 | 1025.1 |
| 20260903073229 | 62 | 252 | 0.0 | 0.0 | 0.00 | 0.00 | 0.00 | 68 | 1025.1 |
| 20260903072725 | 62 | 252 | 0.0 | 0.0 | 0.00 | 0.00 | 0.00 | 69 | 1025.1 |
| 20260903072223 | 62 | 202 | 0.0 | 0.0 | 0.00 | 0.00 | 0.00 | 71 | 1025.1 |
| 20260903071707 | 61 | 202 | 0.0 | 2.0 | 0.00 | 0.00 | 0.00 | 71 | 1025.0 |
| 20260903071239 | 61 | 202 | 0.0 | 2.0 | 0.00 | 0.00 | 0.00 | 72 | 1025.1 |
| 20260903070720 | 60 | 202 | 0.0 | 2.0 | 0.00 | 0.00 | 0.00 | 73 | 1025.1 |
| 20260903065722 | 58 | 5 | 0.0 | 3.0 | 0.00 | 0.00 | 0.00 | 79 | 1025.2 |
| 20260903065225 | 57 | 5 | 0.0 | 3.0 | 0.00 | 0.00 | 0.00 | 79 | 1025.1 |
| 20260903064731 | 56 | 5 | 1.0 | 3.0 | 0.00 | 0.00 | 0.00 | 79 | 1025.2 |
| 20260903064223 | 56 | 5 | 1.0 | 2.0 | 0.00 | 0.00 | 0.00 | 80 | 1025.3 |
| 20260903063714 | 55 | 39 | 0.0 | 2.0 | 0.00 | 0.00 | 0.00 | 81 | 1025.3 |
| 20260903063223 | 54 | 79 | 0.0 | 2.0 | 0.00 | 0.00 | 0.00 | 83 | 1025.2 |
| 20260903062221 | 53 | 79 | 1.0 | 3.0 | 0.00 | 0.00 | 0.00 | 83 | 1025.2 |
| 20260903061726 | 53 | 79 | 1.0 | 2.0 | 0.00 | 0.00 | 0.00 | 83 | 1025.3 |
| 20260903061225 | 53 | 79 | 0.0 | 1.0 | 0.00 | 0.00 | 0.00 | 83 | 1025.3 |
| 20260903060727 | 53 | 30 | 0.0 | 1.0 | 0.00 | 0.00 | 0.00 | 83 | 1025.4 |
| 20260903055717 | 53 | 24 | 0.0 | 1.0 | 0.00 | 0.00 | 0.00 | 82 | 1025.3 |
| 20260903055222 | 53 | 24 | 0.0 | 1.0 | 0.00 | 0.00 | 0.00 | 82 | 1025.2 |
| 20260903054214 | 53 | 24 | 0.0 | 1.0 | 0.00 | 0.00 | 0.00 | 83 | 1025.2 |
| 20260903053711 | 53 | 24 | 0.0 | 1.0 | 0.00 | 0.00 | 0.00 | 83 | 1025.1 |
| 20260903053232 | 53 | 151 | 0.0 | 1.0 | 0.00 | 0.00 | 0.00 | 82 | 1025.2 |
| 20260903052715 | 53 | 151 | 0.0 | 1.0 | 0.00 | 0.00 | 0.00 | 82 | 1025.1 |
| 20260903052229 | 53 | 151 | 0.0 | 1.0 | 0.00 | 0.00 | 0.00 | 82 | 1025.1 |
| 20260903051723 | 53 | 151 | 0.0 | 2.0 | 0.00 | 0.00 | 0.00 | 82 | 1025.0 |
| 20260903051241 | 53 | 151 | 0.0 | 2.0 | 0.00 | 0.00 | 0.00 | 81 | 1025.0 |
| 20260903050725 | 53 | 151 | 0.0 | 2.0 | 0.00 | 0.00 | 0.00 | 81 | 1025.0 |
| 20260903050230 | 53 | 151 | 0.0 | 2.0 | 0.00 | 0.00 | 0.00 | 81 | 1025.0 |
| 20260903045713 | 53 | 151 | 0.0 | 5.0 | 0.00 | 0.00 | 0.00 | 82 | 1024.9 |
| 20260903044716 | 53 | 151 | 1.0 | 5.0 | 0.00 | 0.00 | 0.00 | 82 | 1024.8 |
| 20260903044214 | 53 | 327 | 1.0 | 2.0 | 0.00 | 0.00 | 0.00 | 82 | 1024.8 |
| 20260903043723 | 53 | 36 | 0.0 | 2.0 | 0.00 | 0.00 | 0.00 | 82 | 1024.8 |
| 20260903043220 | 53 | 36 | 0.0 | 2.0 | 0.00 | 0.00 | 0.00 | 82 | 1024.8 |
| 20260903042727 | 53 | 27 | 0.0 | 2.0 | 0.00 | 0.00 | 0.00 | 82 | 1024.8 |
| 20260903041724 | 53 | 22 | 1.0 | 3.0 | 0.00 | 0.00 | 0.00 | 82 | 1024.7 |
| 20260903041221 | 53 | 15 | 0.0 | 4.0 | 0.00 | 0.00 | 0.00 | 82 | 1024.8 |
| 20260903040718 | 53 | 26 | 1.0 | 4.0 | 0.00 | 0.00 | 0.00 | 82 | 1024.7 |
| 20260903040225 | 53 | 25 | 1.0 | 4.0 | 0.00 | 0.00 | 0.00 | 81 | 1024.8 |
| 20260903035708 | 53 | 327 | 0.0 | 0.0 | 0.00 | 0.00 | 0.00 | 81 | 1024.6 |
| 20260903035213 | 53 | 157 | 0.0 | 2.0 | 0.00 | 0.00 | 0.00 | 81 | 1024.6 |
| 20260903034722 | 53 | 157 | 0.0 | 2.0 | 0.00 | 0.00 | 0.00 | 81 | 1024.6 |
| 20260903033727 | 54 | 240 | 0.0 | 3.0 | 0.00 | 0.00 | 0.00 | 81 | 1024.7 |
| 20260903033224 | 54 | 250 | 1.0 | 4.0 | 0.00 | 0.00 | 0.00 | 81 | 1024.7 |
| 20260903032226 | 54 | 130 | 1.0 | 4.0 | 0.00 | 0.00 | 0.00 | 81 | 1024.8 |
| 20260903031709 | 54 | 355 | 0.0 | 2.0 | 0.00 | 0.00 | 0.00 | 81 | 1024.8 |
| 20260903031222 | 54 | 117 | 0.0 | 1.0 | 0.00 | 0.00 | 0.00 | 80 | 1024.7 |
| 20260903030720 | 54 | 32 | 0.0 | 0.0 | 0.00 | 0.00 | 0.00 | 80 | 1024.8 |
| 20260903030227 | 54 | 32 | 0.0 | 0.0 | 0.00 | 0.00 | 0.00 | 80 | 1024.9 |
| 20260903025713 | 54 | 32 | 0.0 | 0.0 | 0.00 | 0.00 | 0.00 | 80 | 1024.8 |
| 20260903025227 | 54 | 36 | 0.0 | 0.0 | 0.00 | 0.00 | 0.00 | 79 | 1024.7 |
| 20260903024720 | 55 | 69 | 0.0 | 2.0 | 0.00 | 0.00 | 0.00 | 79 | 1024.8 |
| 20260903024222 | 55 | 69 | 0.0 | 3.0 | 0.00 | 0.00 | 0.00 | 79 | 1024.7 |
| 20260903023719 | 55 | 69 | 1.0 | 5.0 | 0.00 | 0.00 | 0.00 | 79 | 1024.7 |
| 20260903022720 | 55 | 42 | 1.0 | 5.0 | 0.00 | 0.00 | 0.00 | 79 | 1024.7 |
| 20260903022221 | 55 | 0 | 0.0 | 1.0 | 0.00 | 0.00 | 0.00 | 79 | 1024.7 |
| 20260903021718 | 55 | 67 | 0.0 | 3.0 | 0.00 | 0.00 | 0.00 | 78 | 1024.7 |
| 20260903021221 | 56 | 67 | 0.0 | 3.0 | 0.00 | 0.00 | 0.00 | 78 | 1024.7 |
| 20260903020720 | 56 | 67 | 1.0 | 3.0 | 0.00 | 0.00 | 0.00 | 78 | 1024.7 |
| 20260903020246 | 56 | 67 | 0.0 | 0.0 | 0.00 | 0.00 | 0.00 | 78 | 1024.7 |
| 20260903015720 | 56 | 137 | 0.0 | 0.0 | 0.00 | 0.00 | 0.00 | 78 | 1024.7 |
| 20260903015210 | 56 | 229 | 0.0 | 0.0 | 0.00 | 0.00 | 0.00 | 78 | 1024.7 |
| 20260903014722 | 56 | 146 | 0.0 | 0.0 | 0.00 | 0.00 | 0.00 | 78 | 1024.7 |
| 20260903014217 | 56 | 146 | 0.0 | 3.0 | 0.00 | 0.00 | 0.00 | 78 | 1024.8 |
| 20260903013712 | 56 | 86 | 1.0 | 3.0 | 0.00 | 0.00 | 0.00 | 78 | 1024.8 |
| 20260903013221 | 56 | 86 | 1.0 | 3.0 | 0.00 | 0.00 | 0.00 | 77 | 1024.8 |
| 20260903012721 | 56 | 311 | 1.0 | 4.0 | 0.00 | 0.00 | 0.00 | 78 | 1024.8 |
| 20260903012217 | 56 | 59 | 2.0 | 5.0 | 0.00 | 0.00 | 0.00 | 78 | 1024.8 |
| 20260903011710 | 56 | 29 | 2.0 | 8.0 | 0.00 | 0.00 | 0.00 | 77 | 1024.8 |
| 20260903010738 | 56 | 0 | 1.0 | 8.0 | 0.00 | 0.00 | 0.00 | 77 | 1024.7 |
| 20260903005212 | 56 | 5 | 0.0 | 0.0 | 0.00 | 0.00 | 0.00 | 77 | 1024.7 |
| 20260903004716 | 56 | 355 | 0.0 | 0.0 | 0.00 | 0.00 | 0.00 | 77 | 1024.6 |
| 20260903004222 | 57 | 55 | 0.0 | 0.0 | 0.00 | 0.00 | 0.00 | 77 | 1024.6 |
| 20260903003725 | 57 | 55 | 0.0 | 0.0 | 0.00 | 0.00 | 0.00 | 77 | 1024.5 |
| 20260903003231 | 57 | 55 | 0.0 | 3.0 | 0.00 | 0.00 | 0.00 | 77 | 1024.6 |
| 20260903002728 | 57 | 59 | 0.0 | 7.0 | 0.00 | 0.00 | 0.00 | 77 | 1024.5 |
| 20260903001219 | 57 | 5 | 2.0 | 4.0 | 0.00 | 0.00 | 0.00 | 78 | 1024.5 |
| 20260903000722 | 56 | 344 | 1.0 | 5.0 | 0.00 | 0.00 | 0.00 | 79 | 1024.4 |
| 20260903000229 | 56 | 29 | 1.0 | 5.0 | 0.00 | 0.00 | 0.00 | 79 | 1024.5 |
| 20260902235722 | 56 | 11 | 1.0 | 5.0 | 0.00 | 0.00 | 0.00 | 79 | 1024.5 |
| 20260902234216 | 56 | 24 | 0.0 | 0.0 | 0.00 | 0.00 | 0.00 | 80 | 1024.6 |
| 20260902233717 | 56 | 24 | 0.0 | 0.0 | 0.00 | 0.00 | 0.00 | 79 | 1024.6 |
| 20260902233223 | 56 | 0 | 0.0 | 0.0 | 0.00 | 0.00 | 0.00 | 79 | 1024.6 |
| 20260902232715 | 56 | 0 | 0.0 | 0.0 | 0.00 | 0.00 | 0.00 | 79 | 1024.6 |
| 20260902232232 | 56 | 0 | 0.0 | 0.0 | 0.00 | 0.00 | 0.00 | 79 | 1024.6 |
| 20260902231716 | 57 | 0 | 0.0 | 0.0 | 0.00 | 0.00 | 0.00 | 79 | 1024.6 |
| 20260902231225 | 57 | 135 | 0.0 | 0.0 | 0.00 | 0.00 | 0.00 | 79 | 1024.6 |
| 20260902230713 | 57 | 138 | 0.0 | 0.0 | 0.00 | 0.00 | 0.00 | 78 | 1024.5 |
| 20260902230220 | 57 | 138 | 0.0 | 0.0 | 0.00 | 0.00 | 0.00 | 78 | 1024.5 |
| 20260902225723 | 57 | 138 | 0.0 | 0.0 | 0.00 | 0.00 | 0.00 | 77 | 1024.5 |
| 20260902224721 | 57 | 137 | 0.0 | 0.0 | 0.00 | 0.00 | 0.00 | 77 | 1024.5 |
| 20260902223714 | 57 | 355 | 0.0 | 0.0 | 0.00 | 0.00 | 0.00 | 77 | 1024.5 |
| 20260902223225 | 58 | 355 | 0.0 | 0.0 | 0.00 | 0.00 | 0.00 | 77 | 1024.5 |
| 20260902222710 | 58 | 355 | 0.0 | 0.0 | 0.00 | 0.00 | 0.00 | 77 | 1024.5 |
| 20260902222220 | 58 | 355 | 0.0 | 6.0 | 0.00 | 0.00 | 0.00 | 76 | 1024.6 |
| 20260902221731 | 58 | 355 | 0.0 | 6.0 | 0.00 | 0.00 | 0.00 | 76 | 1024.5 |
| 20260902221218 | 58 | 355 | 0.0 | 6.0 | 0.00 | 0.00 | 0.00 | 76 | 1024.6 |
| 20260902220729 | 58 | 5 | 0.0 | 0.0 | 0.00 | 0.00 | 0.00 | 76 | 1024.6 |
| 20260902215717 | 58 | 327 | 0.0 | 0.0 | 0.00 | 0.00 | 0.00 | 75 | 1024.5 |
| 20260902215224 | 58 | 0 | 0.0 | 0.0 | 0.00 | 0.00 | 0.00 | 75 | 1024.5 |
| 20260902214213 | 58 | 0 | 0.0 | 0.0 | 0.00 | 0.00 | 0.00 | 75 | 1024.5 |
| 20260902213210 | 58 | 0 | 0.0 | 0.0 | 0.00 | 0.00 | 0.00 | 73 | 1024.5 |
| 20260902211729 | 59 | 350 | 0.0 | 0.0 | 0.00 | 0.00 | 0.00 | 73 | 1024.4 |
| 20260902210715 | 59 | 350 | 0.0 | 0.0 | 0.00 | 0.00 | 0.00 | 72 | 1024.5 |
| 20260902210222 | 59 | 350 | 0.0 | 0.0 | 0.00 | 0.00 | 0.00 | 72 | 1024.4 |
| 20260902205710 | 60 | 350 | 0.0 | 0.0 | 0.00 | 0.00 | 0.00 | 72 | 1024.5 |
| 20260902205208 | 60 | 350 | 0.0 | 0.0 | 0.00 | 0.00 | 0.00 | 72 | 1024.4 |
| 20260902203718 | 60 | 350 | 0.0 | 0.0 | 0.00 | 0.00 | 0.00 | 71 | 1024.3 |
| 20260902202727 | 60 | 346 | 0.0 | 0.0 | 0.00 | 0.00 | 0.00 | 69 | 1024.0 |